TimeCDT,TemperatureF,Dew PointF,Humidity,Sea Level PressureIn,VisibilityMPH,Wind Direction,Wind SpeedMPH,Gust SpeedMPH,PrecipitationIn,Events,Conditions,WindDirDegrees,DateUTC
12:54 AM,73.0,63.0,71,30.04,10.0,SSW,6.9,-,N/A,,Clear,200,2013-09-11 05:54:00
1:54 AM,73.0,62.1,68,30.04,10.0,SW,4.6,-,N/A,,Clear,220,2013-09-11 06:54:00
2:54 AM,73.0,62.1,68,30.04,10.0,SW,5.8,-,N/A,,Clear,230,2013-09-11 07:54:00
3:54 AM,71.1,62.1,73,30.05,10.0,SW,5.8,-,N/A,,Clear,230,2013-09-11 08:54:00
4:54 AM,72.0,61.0,68,30.05,10.0,WSW,4.6,-,N/A,,Clear,240,2013-09-11 09:54:00
5:54 AM,70.0,61.0,73,30.06,10.0,WSW,5.8,-,N/A,,Clear,240,2013-09-11 10:54:00
6:54 AM,69.1,61.0,75,30.09,10.0,SSW,5.8,-,N/A,,Clear,210,2013-09-11 11:54:00
7:54 AM,73.9,63.0,68,30.10,10.0,WSW,4.6,-,N/A,,Clear,240,2013-09-11 12:54:00
8:54 AM,79.0,63.0,58,30.10,10.0,WSW,8.1,-,N/A,,Clear,240,2013-09-11 13:54:00
9:54 AM,84.0,63.0,49,30.09,10.0,WSW,4.6,-,N/A,,Clear,250,2013-09-11 14:54:00
10:54 AM,88.0,62.1,42,30.09,10.0,Variable,6.9,-,N/A,,Clear,0,2013-09-11 15:54:00
11:54 AM,90.0,62.1,39,30.08,10.0,West,11.5,16.1,N/A,,Clear,260,2013-09-11 16:54:00
12:54 PM,91.9,62.1,37,30.07,10.0,SW,10.4,-,N/A,,Clear,230,2013-09-11 17:54:00
1:54 PM,95.0,60.1,31,30.05,10.0,West,5.8,16.1,N/A,,Clear,260,2013-09-11 18:54:00
2:54 PM,96.1,57.9,28,30.02,10.0,SW,15.0,20.7,N/A,,Clear,220,2013-09-11 19:54:00
3:54 PM,96.1,57.9,28,30.01,10.0,WSW,15.0,19.6,N/A,,Partly Cloudy,240,2013-09-11 20:54:00
4:54 PM,96.1,57.0,27,30.00,10.0,WSW,12.7,18.4,N/A,,Clear,250,2013-09-11 21:54:00
5:54 PM,93.9,57.9,30,29.99,10.0,SW,8.1,-,N/A,,Clear,220,2013-09-11 22:54:00
6:51 PM,84.2,64.4,51,30.03,10.0,North,13.8,-,N/A,,Partly Cloudy,360,2013-09-11 23:51:00
6:54 PM,84.0,64.0,51,30.01,10.0,North,12.7,-,N/A,,Partly Cloudy,10,2013-09-11 23:54:00
7:54 PM,81.0,64.0,56,30.02,10.0,NNE,8.1,-,N/A,,Partly Cloudy,20,2013-09-12 00:54:00
8:54 PM,79.0,64.9,62,30.04,10.0,NE,4.6,-,N/A,,Mostly Cloudy,40,2013-09-12 01:54:00
9:54 PM,78.1,64.9,64,30.04,10.0,Calm,Calm,-,N/A,,Mostly Cloudy,0,2013-09-12 02:54:00
10:54 PM,75.9,66.0,71,30.04,10.0,North,3.5,-,0.00,,Overcast,350,2013-09-12 03:54:00
11:54 PM,75.9,66.0,71,30.04,10.0,NNW,8.1,-,N/A,Thunderstorm,Mostly Cloudy,330,2013-09-12 04:54:00